Flag for U.S.A. Weather past 2 weeks in Memphis, Tennessee, U.S.A.

Now
74 °F

More clouds than sun.


Feels Like: 76 °F
Forecast: 68 / 77 °F
Wind: 5 mph from Northwest

Location: Memphis International Airport

Current Time: Jul 31, 2014 at 11:32:25 AM

Latest Report: Jul 31, 2014 at 10:54 AM


Visibility: 10 mi

Pressure: 30.11 "Hg

Humidity: 71%

Dew point: 64 °F

Location of MemphisLocation

Historic Weather in Memphis — Graph

°F

Memphis temperature yesterday

Maximum temperature yesterday: 84 °F (at 2:54 PM)
Minimum temperature yesterday: 63 °F (at 6:54 AM)
Average temperature yesterday: 74 °F

Past Weeks' High & Low Weather Summary

 TemperatureHumidityPressure
High93 °F (Jul 26, 3:54 PM)94% (Jul 18, 11:04 AM)30.14 "Hg (Jul 18, 11:04 AM)
Low63 °F (Jul 30, 6:54 AM)40% (Jul 24, 12:54 PM)29.92 "Hg (Jul 27, 4:54 PM)
Average76 °F67%30.03 "Hg
* Reported Jul 16 9:54 AM — Jul 31 9:54 AM, Memphis, Weather by CustomWeather, © 2014

Note: Actual official high and low records may vary slightly from our data, if they occured in-between our weather recording intervals... More about our weather records

Advertising

Memphis weather history for previous 24 hours

 ConditionsComfort  
Time TempWeatherWind HumidityBarometerVisibility
9:54 AM
Jul 31
73 °FMore clouds than sun.3 mph76%30.09 "Hg10 mi
9:02 AM72 °FMostly cloudy.8 mph83%30.11 "Hg8 mi
8:54 AM71 °FMore clouds than sun.8 mph84%30.10 "Hg7 mi
7:54 AM71 °FMore clouds than sun.6 mph84%30.09 "Hg6 mi
6:54 AM71 °FCloudy.3 mph84%30.08 "Hg6 mi
5:54 AM72 °FMostly cloudy.3 mph76%30.08 "Hg10 mi
4:54 AM73 °FMostly cloudy.No wind71%30.06 "Hg9 mi
3:54 AM73 °FMostly cloudy.5 mph71%30.05 "Hg9 mi
2:54 AM72 °FMostly cloudy.6 mph76%30.05 "Hg10 mi
1:54 AM72 °FMostly cloudy.3 mph76%30.06 "Hg10 mi
12:54 AM72 °FLight rain. Mostly cloudy.5 mph78%30.07 "Hg9 mi
11:54 PM
Jul 30
72 °FLight rain. Overcast.6 mph76%30.06 "Hg10 mi
10:54 PM74 °FMostly cloudy.9 mph71%30.05 "Hg10 mi
9:54 PM77 °FOvercast.5 mph58%30.05 "Hg10 mi
8:54 PM77 °FMostly cloudy.3 mph54%30.05 "Hg10 mi
7:54 PM79 °FOvercast.5 mph47%30.05 "Hg10 mi
6:54 PM79 °FMore clouds than sun.6 mph47%30.05 "Hg10 mi
5:54 PM80 °FMore clouds than sun.7 mph45%30.06 "Hg10 mi
4:54 PM82 °FMore clouds than sun.9 mph43%30.07 "Hg10 mi
3:54 PM83 °FScattered clouds.5 mph41%30.07 "Hg10 mi
2:54 PM84 °FScattered clouds.6 mph40%30.08 "Hg10 mi
1:54 PM83 °FScattered clouds.3 mph41%30.09 "Hg10 mi
12:54 PM82 °FScattered clouds.5 mph41%30.09 "Hg10 mi
11:54 AM80 °FScattered clouds.6 mph44%30.11 "Hg10 mi
Weather by CustomWeather, © 2014

See weather overviewHow to use our weather pages